Time,TemperatureF,DewpointF,PressureIn,WindDirection,WindDirectionDegrees,WindSpeedMPH,WindSpeedGustMPH,Humidity,HourlyPrecipIn,Conditions,Clouds,dailyrainin,SoftwareType,DateUTC
2012-11-22 06:45:00,35.8,11.5,30.01,SSW,202,0.0,2.0,36,0.00,,---,0.00,VWS V14.01,2012-11-22 13:45:00,
2012-11-22 06:55:00,36.3,11.9,30.02,SSW,206,0.0,0.0,36,0.00,,---,0.00,VWS V14.01,2012-11-22 13:55:00,
2012-11-22 07:00:00,36.8,11.7,30.02,SSW,206,1.0,2.0,35,0.00,,---,0.00,VWS V14.01,2012-11-22 14:00:00,
2012-11-22 07:05:00,36.6,12.2,30.00,SSW,206,1.0,1.0,36,0.00,,---,0.00,VWS V14.01,2012-11-22 14:05:00,
2012-11-22 07:07:00,36.4,12.0,30.02,SSW,205,0.0,1.0,36,0.00,,---,0.00,VWS V14.01,2012-11-22 14:07:00,
2012-11-22 07:12:00,36.1,11.7,30.03,SSW,205,0.0,0.0,36,0.00,,---,0.00,VWS V14.01,2012-11-22 14:12:00,
2012-11-22 07:14:00,35.9,12.2,30.02,SSW,205,0.0,0.0,37,0.00,,---,0.00,VWS V14.01,2012-11-22 14:14:00,
2012-11-22 07:20:00,35.5,11.8,30.03,SSW,205,2.0,3.0,37,0.00,,---,0.00,VWS V14.01,2012-11-22 14:20:00,
2012-11-22 07:25:00,34.4,11.4,30.05,SSW,205,0.0,0.0,38,0.00,,---,0.00,VWS V14.01,2012-11-22 14:25:00,
2012-11-22 07:30:00,33.9,11.6,30.05,SSW,205,6.0,6.0,39,0.00,,---,0.00,VWS V14.01,2012-11-22 14:30:00,
2012-11-22 07:35:00,34.4,12.6,30.05,SSW,205,0.0,2.0,40,0.00,,---,0.00,VWS V14.01,2012-11-22 14:35:00,
2012-11-22 07:40:00,34.8,11.8,30.03,SSW,205,0.0,0.0,38,0.00,,---,0.00,VWS V14.01,2012-11-22 14:40:00,
2012-11-22 07:45:00,35.2,12.1,30.04,SSW,206,1.0,2.0,38,0.00,,---,0.00,VWS V14.01,2012-11-22 14:45:00,
2012-11-22 07:50:00,35.5,12.4,30.04,SSW,206,0.0,0.0,38,0.00,,---,0.00,VWS V14.01,2012-11-22 14:50:00,
2012-11-22 07:55:00,35.9,12.8,30.05,SSW,206,0.0,1.0,38,0.00,,---,0.00,VWS V14.01,2012-11-22 14:55:00,
2012-11-22 08:00:00,36.3,13.7,30.05,SSW,206,0.0,0.0,39,0.00,,---,0.00,VWS V14.01,2012-11-22 15:00:00,
2012-11-22 08:05:00,36.9,14.3,30.03,SSW,206,0.0,0.0,39,0.00,,---,0.00,VWS V14.01,2012-11-22 15:05:00,
2012-11-22 08:10:00,37.6,14.9,30.03,SSW,206,0.0,0.0,39,0.00,,---,0.00,VWS V14.01,2012-11-22 15:10:00,
2012-11-22 08:15:00,38.6,14.6,30.04,SSW,206,0.0,1.0,37,0.00,,---,0.00,VWS V14.01,2012-11-22 15:15:00,
2012-11-22 08:20:00,39.8,14.4,30.02,SSW,205,0.0,0.0,35,0.00,,---,0.00,VWS V14.01,2012-11-22 15:20:00,
2012-11-22 08:25:00,41.1,14.9,30.00,SSW,206,0.0,0.0,34,0.00,,---,0.00,VWS V14.01,2012-11-22 15:25:00,
2012-11-22 08:30:00,42.4,14.6,30.00,SSW,206,0.0,1.0,32,0.00,,---,0.00,VWS V14.01,2012-11-22 15:30:00,
2012-11-22 08:35:00,43.7,15.8,29.99,SSW,206,0.0,0.0,32,0.00,,---,0.00,VWS V14.01,2012-11-22 15:35:00,
2012-11-22 08:40:00,45.2,15.6,29.98,SSW,206,1.0,3.0,30,0.00,,---,0.00,VWS V14.01,2012-11-22 15:40:00,
2012-11-22 08:45:00,46.5,16.0,29.98,SSW,205,0.0,1.0,29,0.00,,---,0.00,VWS V14.01,2012-11-22 15:45:00,
2012-11-22 08:50:00,47.2,16.6,29.96,SSW,206,0.0,0.0,29,0.00,,---,0.00,VWS V14.01,2012-11-22 15:50:00,
2012-11-22 08:55:00,47.6,16.1,29.96,SSW,206,1.0,2.0,28,0.00,,---,0.00,VWS V14.01,2012-11-22 15:55:00,
2012-11-22 09:00:00,47.9,16.4,29.96,SSW,206,0.0,0.0,28,0.00,,---,0.00,VWS V14.01,2012-11-22 16:00:00,
2012-11-22 09:05:00,48.1,16.5,29.98,SSW,206,0.0,0.0,28,0.00,,---,0.00,VWS V14.01,2012-11-22 16:05:00,
2012-11-22 09:10:00,48.4,16.0,29.99,SSW,206,0.0,0.0,27,0.00,,---,0.00,VWS V14.01,2012-11-22 16:10:00,
2012-11-22 09:15:00,48.6,17.8,29.99,SSW,206,3.0,4.0,29,0.00,,---,0.00,VWS V14.01,2012-11-22 16:15:00,
2012-11-22 09:20:00,48.1,16.5,29.99,SSW,206,2.0,5.0,28,0.00,,---,0.00,VWS V14.01,2012-11-22 16:20:00,
2012-11-22 09:25:00,47.5,16.0,30.00,SSW,205,3.0,4.0,28,0.00,,---,0.00,VWS V14.01,2012-11-22 16:25:00,
2012-11-22 09:30:00,46.9,15.5,30.02,SSW,206,1.0,2.0,28,0.00,,---,0.00,VWS V14.01,2012-11-22 16:30:00,
2012-11-22 09:35:00,46.7,15.3,30.01,SSW,206,0.0,0.0,28,0.00,,---,0.00,VWS V14.01,2012-11-22 16:35:00,
2012-11-22 09:40:00,46.7,15.3,30.02,SSW,206,1.0,5.0,28,0.00,,---,0.00,VWS V14.01,2012-11-22 16:40:00,
2012-11-22 09:45:00,46.7,15.3,30.02,SSW,206,1.0,5.0,28,0.00,,---,0.00,VWS V14.01,2012-11-22 16:45:00,
2012-11-22 09:50:00,46.9,15.5,30.02,SSW,206,2.0,4.0,28,0.00,,---,0.00,VWS V14.01,2012-11-22 16:50:00,
2012-11-22 09:56:00,47.2,15.8,30.01,SSW,206,4.0,4.0,28,0.00,,---,0.00,VWS V14.01,2012-11-22 16:56:00,
2012-11-22 10:01:00,47.6,16.1,30.00,SSW,206,1.0,1.0,28,0.00,,---,0.00,VWS V14.01,2012-11-22 17:01:00,
2012-11-22 10:06:00,48.1,16.5,30.03,SSW,206,1.0,1.0,28,0.00,,---,0.00,VWS V14.01,2012-11-22 17:06:00,
2012-11-22 10:11:00,48.6,16.1,30.03,SSW,206,0.0,0.0,27,0.00,,---,0.00,VWS V14.01,2012-11-22 17:11:00,
2012-11-22 10:16:00,49.1,16.6,30.04,SSW,206,0.0,0.0,27,0.00,,---,0.00,VWS V14.01,2012-11-22 17:16:00,
2012-11-22 10:21:00,49.3,16.8,30.03,SSW,206,0.0,0.0,27,0.00,,---,0.00,VWS V14.01,2012-11-22 17:21:00,
2012-11-22 10:26:00,49.5,16.9,30.02,SSW,206,0.0,1.0,27,0.00,,---,0.00,VWS V14.01,2012-11-22 17:26:00,
2012-11-22 10:31:00,50.0,16.5,30.02,SSW,206,0.0,0.0,26,0.00,,---,0.00,VWS V14.01,2012-11-22 17:31:00,
2012-11-22 10:36:00,50.5,16.9,30.02,SSW,206,0.0,2.0,26,0.00,,---,0.00,VWS V14.01,2012-11-22 17:36:00,
2012-11-22 10:41:00,51.0,17.3,30.02,SSW,206,5.0,5.0,26,0.00,,---,0.00,VWS V14.01,2012-11-22 17:41:00,
2012-11-22 10:46:00,51.3,17.6,30.02,SSW,206,0.0,4.0,26,0.00,,---,0.00,VWS V14.01,2012-11-22 17:46:00,
2012-11-22 10:51:00,51.3,16.7,30.02,SSW,206,0.0,1.0,25,0.00,,---,0.00,VWS V14.01,2012-11-22 17:51:00,
2012-11-22 10:56:00,51.7,17.0,30.00,SSW,206,0.0,1.0,25,0.00,,---,0.00,VWS V14.01,2012-11-22 17:56:00,
2012-11-22 11:01:00,52.2,17.5,30.01,SSW,206,0.0,1.0,25,0.00,,---,0.00,VWS V14.01,2012-11-22 18:01:00,
2012-11-22 11:06:00,52.5,17.7,30.01,SSW,206,0.0,1.0,25,0.00,,---,0.00,VWS V14.01,2012-11-22 18:06:00,
2012-11-22 11:11:00,52.7,17.9,30.00,SSW,206,0.0,3.0,25,0.00,,---,0.00,VWS V14.01,2012-11-22 18:11:00,
2012-11-22 11:16:00,52.7,17.9,29.99,SSW,206,1.0,5.0,25,0.00,,---,0.00,VWS V14.01,2012-11-22 18:16:00,
2012-11-22 11:21:00,52.7,17.9,29.99,SSW,206,0.0,2.0,25,0.00,,---,0.00,VWS V14.01,2012-11-22 18:21:00,
2012-11-22 11:26:00,53.0,18.1,29.99,SSW,206,0.0,1.0,25,0.00,,---,0.00,VWS V14.01,2012-11-22 18:26:00,
2012-11-22 11:31:00,53.9,18.0,29.99,SSW,206,0.0,0.0,24,0.00,,---,0.00,VWS V14.01,2012-11-22 18:31:00,
2012-11-22 11:36:00,54.9,17.8,29.97,SSW,206,0.0,1.0,23,0.00,,---,0.00,VWS V14.01,2012-11-22 18:36:00,
2012-11-22 11:41:00,54.7,18.6,29.96,SSW,206,0.0,0.0,24,0.00,,---,0.00,VWS V14.01,2012-11-22 18:41:00,
2012-11-22 11:46:00,55.2,18.1,29.96,SSW,206,0.0,1.0,23,0.00,,---,0.00,VWS V14.01,2012-11-22 18:46:00,
2012-11-22 11:51:00,55.6,18.4,29.96,SSW,206,1.0,1.0,23,0.00,,---,0.00,VWS V14.01,2012-11-22 18:51:00,
2012-11-22 11:56:00,55.1,17.0,29.95,SSW,206,1.0,1.0,22,0.00,,---,0.00,VWS V14.01,2012-11-22 18:56:00,
2012-11-22 12:02:00,54.6,17.6,29.95,SSW,206,0.0,1.0,23,0.00,,---,0.00,VWS V14.01,2012-11-22 19:02:00,
2012-11-22 12:07:00,54.3,16.3,29.99,SSW,206,0.0,5.0,22,0.00,,---,0.00,VWS V14.01,2012-11-22 19:07:00,
2012-11-22 12:12:00,53.7,16.8,29.99,SSW,205,1.0,7.0,23,0.00,,---,0.00,VWS V14.01,2012-11-22 19:12:00,
2012-11-22 12:17:00,53.6,16.7,29.99,SSW,205,1.0,2.0,23,0.00,,---,0.00,VWS V14.01,2012-11-22 19:17:00,
2012-11-22 12:22:00,53.6,16.7,29.99,SSW,205,0.0,1.0,23,0.00,,---,0.00,VWS V14.01,2012-11-22 19:22:00,
2012-11-22 12:27:00,54.0,16.0,29.99,SSW,205,0.0,2.0,22,0.00,,---,0.00,VWS V14.01,2012-11-22 19:27:00,
2012-11-22 12:32:00,54.6,16.5,29.98,SSW,205,1.0,2.0,22,0.00,,---,0.00,VWS V14.01,2012-11-22 19:32:00,
2012-11-22 12:37:00,55.3,17.1,29.97,SSW,205,0.0,1.0,22,0.00,,---,0.00,VWS V14.01,2012-11-22 19:37:00,
2012-11-22 12:42:00,55.5,17.3,29.97,SSW,205,0.0,1.0,22,0.00,,---,0.00,VWS V14.01,2012-11-22 19:42:00,
2012-11-22 12:47:00,55.9,17.6,29.97,SSW,205,1.0,2.0,22,0.00,,---,0.00,VWS V14.01,2012-11-22 19:47:00,
2012-11-22 12:52:00,56.6,17.1,29.96,SSW,206,0.0,2.0,21,0.00,,---,0.00,VWS V14.01,2012-11-22 19:52:00,
2012-11-22 12:57:00,57.2,17.6,29.96,SSW,205,0.0,1.0,21,0.00,,---,0.00,VWS V14.01,2012-11-22 19:57:00,
2012-11-22 13:02:00,57.1,17.6,29.95,SSW,205,0.0,2.0,21,0.00,,---,0.00,VWS V14.01,2012-11-22 20:02:00,
2012-11-22 13:07:00,57.3,17.7,29.95,SSW,205,0.0,1.0,21,0.00,,---,0.00,VWS V14.01,2012-11-22 20:07:00,
2012-11-22 13:12:00,57.3,17.7,29.95,SSW,205,2.0,2.0,21,0.00,,---,0.00,VWS V14.01,2012-11-22 20:12:00,
2012-11-22 13:17:00,56.9,17.4,29.95,SSW,205,2.0,2.0,21,0.00,,---,0.00,VWS V14.01,2012-11-22 20:17:00,
2012-11-22 13:22:00,56.7,17.2,29.96,SSW,205,0.0,0.0,21,0.00,,---,0.00,VWS V14.01,2012-11-22 20:22:00,
2012-11-22 13:27:00,56.9,17.4,29.96,SSW,205,0.0,0.0,21,0.00,,---,0.00,VWS V14.01,2012-11-22 20:27:00,
2012-11-22 13:32:00,57.0,17.5,29.95,SSW,205,0.0,2.0,21,0.00,,---,0.00,VWS V14.01,2012-11-22 20:32:00,
2012-11-22 13:37:00,56.9,17.4,29.95,SSW,205,5.0,5.0,21,0.00,,---,0.00,VWS V14.01,2012-11-22 20:37:00,
2012-11-22 13:42:00,56.7,17.2,29.96,SSW,205,0.0,1.0,21,0.00,,---,0.00,VWS V14.01,2012-11-22 20:42:00,
2012-11-22 13:47:00,56.7,17.2,29.96,SSW,205,1.0,2.0,21,0.00,,---,0.00,VWS V14.01,2012-11-22 20:47:00,
2012-11-22 13:52:00,56.6,16.0,29.97,SSW,205,0.0,1.0,20,0.00,,---,0.00,VWS V14.01,2012-11-22 20:52:00,
2012-11-22 13:57:00,57.0,17.5,29.97,SSW,205,4.0,4.0,21,0.00,,---,0.00,VWS V14.01,2012-11-22 20:57:00,
2012-11-22 14:02:00,57.1,16.4,29.97,South,186,3.0,8.0,20,0.00,,---,0.00,VWS V14.01,2012-11-22 21:02:00,
2012-11-22 14:07:00,57.0,16.4,29.97,South,186,1.0,6.0,20,0.00,,---,0.00,VWS V14.01,2012-11-22 21:07:00,
2012-11-22 14:12:00,57.2,16.5,29.97,South,186,1.0,2.0,20,0.00,,---,0.00,VWS V14.01,2012-11-22 21:12:00,
2012-11-22 14:17:00,57.4,16.7,29.97,South,186,0.0,1.0,20,0.00,,---,0.00,VWS V14.01,2012-11-22 21:17:00,
2012-11-22 14:22:00,57.4,16.7,29.97,South,186,0.0,1.0,20,0.00,,---,0.00,VWS V14.01,2012-11-22 21:22:00,
2012-11-22 14:27:00,57.0,16.4,29.98,South,190,6.0,9.0,20,0.00,,---,0.00,VWS V14.01,2012-11-22 21:27:00,
2012-11-22 14:32:00,56.5,15.9,29.97,South,191,0.0,5.0,20,0.00,,---,0.00,VWS V14.01,2012-11-22 21:32:00,
2012-11-22 14:37:00,56.8,16.2,29.97,South,191,4.0,6.0,20,0.00,,---,0.00,VWS V14.01,2012-11-22 21:37:00,
2012-11-22 14:42:00,57.4,15.5,29.97,South,191,4.0,8.0,19,0.00,,---,0.00,VWS V14.01,2012-11-22 21:42:00,
2012-11-22 14:47:00,57.2,15.3,29.97,South,191,2.0,9.0,19,0.00,,---,0.00,VWS V14.01,2012-11-22 21:47:00,
2012-11-22 14:52:00,57.5,15.6,29.97,South,191,0.0,4.0,19,0.00,,---,0.00,VWS V14.01,2012-11-22 21:52:00,
2012-11-22 14:57:00,57.2,15.3,29.98,South,191,5.0,5.0,19,0.00,,---,0.00,VWS V14.01,2012-11-22 21:57:00,
2012-11-22 15:02:00,57.0,16.4,29.98,South,191,1.0,4.0,20,0.00,,---,0.00,VWS V14.01,2012-11-22 22:02:00,
2012-11-22 15:07:00,57.1,15.2,29.97,SW,234,7.0,14.0,19,0.00,,---,0.00,VWS V14.01,2012-11-22 22:07:00,
2012-11-22 15:12:00,56.8,15.0,29.97,WSW,238,6.0,9.0,19,0.00,,---,0.00,VWS V14.01,2012-11-22 22:12:00,
2012-11-22 15:17:00,56.7,14.9,29.97,WSW,238,5.0,10.0,19,0.00,,---,0.00,VWS V14.01,2012-11-22 22:17:00,
2012-11-22 15:22:00,56.3,15.8,29.99,WSW,245,6.0,9.0,20,0.00,,---,0.00,VWS V14.01,2012-11-22 22:22:00,
2012-11-22 15:27:00,56.2,15.7,29.99,WSW,245,5.0,8.0,20,0.00,,---,0.00,VWS V14.01,2012-11-22 22:27:00,
2012-11-22 15:32:00,56.0,15.5,30.00,WSW,245,6.0,7.0,20,0.00,,---,0.00,VWS V14.01,2012-11-22 22:32:00,
2012-11-22 15:37:00,56.1,15.6,30.00,WSW,245,0.0,7.0,20,0.00,,---,0.00,VWS V14.01,2012-11-22 22:37:00,
2012-11-22 15:42:00,55.8,16.5,30.01,WSW,245,6.0,7.0,21,0.00,,---,0.00,VWS V14.01,2012-11-22 22:42:00,
2012-11-22 15:48:00,55.3,16.0,30.01,WSW,245,1.0,6.0,21,0.00,,---,0.00,VWS V14.01,2012-11-22 22:48:00,
2012-11-22 15:53:00,55.7,16.4,30.01,WSW,245,2.0,5.0,21,0.00,,---,0.00,VWS V14.01,2012-11-22 22:53:00,
2012-11-22 15:58:00,55.5,16.2,30.02,WSW,245,0.0,4.0,21,0.00,,---,0.00,VWS V14.01,2012-11-22 22:58:00,
2012-11-22 16:03:00,55.4,16.1,30.02,WSW,245,1.0,5.0,21,0.00,,---,0.00,VWS V14.01,2012-11-22 23:03:00,
2012-11-22 16:08:00,55.1,17.0,30.00,WSW,245,1.0,6.0,22,0.00,,---,0.00,VWS V14.01,2012-11-22 23:08:00,
2012-11-22 16:13:00,54.4,16.4,30.02,WSW,245,3.0,5.0,22,0.00,,---,0.00,VWS V14.01,2012-11-22 23:13:00,
2012-11-22 16:18:00,53.2,16.4,30.03,WSW,245,6.0,7.0,23,0.00,,---,0.00,VWS V14.01,2012-11-22 23:18:00,
2012-11-22 16:23:00,52.0,16.4,30.05,WSW,245,5.0,6.0,24,0.00,,---,0.00,VWS V14.01,2012-11-22 23:23:00,
2012-11-22 16:28:00,50.2,15.8,30.06,WSW,245,5.0,7.0,25,0.00,,---,0.00,VWS V14.01,2012-11-22 23:28:00,
2012-11-22 16:33:00,48.1,14.9,30.08,WSW,245,6.0,10.0,26,0.00,,---,0.00,VWS V14.01,2012-11-22 23:33:00,
2012-11-22 16:38:00,47.2,14.9,30.08,WSW,245,6.0,11.0,27,0.00,,---,0.00,VWS V14.01,2012-11-22 23:38:00,
2012-11-22 16:43:00,47.3,15.0,30.08,WSW,245,4.0,8.0,27,0.00,,---,0.00,VWS V14.01,2012-11-22 23:43:00,
2012-11-22 16:48:00,46.9,14.7,30.08,WSW,245,6.0,7.0,27,0.00,,---,0.00,VWS V14.01,2012-11-22 23:48:00,
2012-11-22 16:53:00,46.8,15.4,30.07,WSW,245,6.0,8.0,28,0.00,,---,0.00,VWS V14.01,2012-11-22 23:53:00,
2012-11-22 16:58:00,46.8,15.4,30.07,WSW,245,1.0,10.0,28,0.00,,---,0.00,VWS V14.01,2012-11-22 23:58:00,
2012-11-22 17:03:00,46.1,15.6,30.09,WSW,245,3.0,10.0,29,0.00,,---,0.00,VWS V14.01,2012-11-23 00:03:00,
2012-11-22 17:08:00,45.3,15.7,30.12,WSW,245,2.0,5.0,30,0.00,,---,0.00,VWS V14.01,2012-11-23 00:08:00,
2012-11-22 17:13:00,44.8,15.3,30.13,WSW,245,1.0,7.0,30,0.00,,---,0.00,VWS V14.01,2012-11-23 00:13:00,
2012-11-22 17:18:00,44.9,15.4,30.13,WSW,245,0.0,5.0,30,0.00,,---,0.00,VWS V14.01,2012-11-23 00:18:00,
2012-11-22 17:23:00,45.0,15.4,30.13,WSW,245,0.0,5.0,30,0.00,,---,0.00,VWS V14.01,2012-11-23 00:23:00,
2012-11-22 17:28:00,45.1,15.5,30.13,WSW,245,0.0,2.0,30,0.00,,---,0.00,VWS V14.01,2012-11-23 00:28:00,
2012-11-22 17:33:00,45.1,15.5,30.14,WSW,245,0.0,3.0,30,0.00,,---,0.00,VWS V14.01,2012-11-23 00:33:00,
2012-11-22 17:38:00,44.8,15.3,30.14,WSW,245,1.0,1.0,30,0.00,,---,0.00,VWS V14.01,2012-11-23 00:38:00,
2012-11-22 17:43:00,43.0,13.7,30.16,WSW,245,6.0,6.0,30,0.00,,---,0.00,VWS V14.01,2012-11-23 00:43:00,
2012-11-22 17:48:00,42.3,13.8,30.18,WSW,246,3.0,10.0,31,0.00,,---,0.00,VWS V14.01,2012-11-23 00:48:00,
2012-11-22 17:53:00,44.1,14.7,30.16,WSW,246,2.0,8.0,30,0.00,,---,0.00,VWS V14.01,2012-11-23 00:53:00,
2012-11-22 17:58:00,44.5,14.2,30.15,WSW,246,0.0,5.0,29,0.00,,---,0.00,VWS V14.01,2012-11-23 00:58:00,
2012-11-22 18:03:00,43.8,14.4,30.17,WSW,246,0.0,2.0,30,0.00,,---,0.00,VWS V14.01,2012-11-23 01:03:00,
2012-11-22 18:08:00,43.0,14.4,30.17,WSW,246,2.0,4.0,31,0.00,,---,0.00,VWS V14.01,2012-11-23 01:08:00,
2012-11-22 18:13:00,42.7,14.9,30.18,WSW,246,1.0,8.0,32,0.00,,---,0.00,VWS V14.01,2012-11-23 01:13:00,
2012-11-22 18:18:00,41.6,15.3,30.20,WSW,246,0.0,5.0,34,0.00,,---,0.00,VWS V14.01,2012-11-23 01:18:00,
2012-11-22 18:23:00,41.0,16.1,30.20,WSW,246,2.0,2.0,36,0.00,,---,0.00,VWS V14.01,2012-11-23 01:23:00,
2012-11-22 18:28:00,40.6,15.8,30.21,WSW,246,0.0,2.0,36,0.00,,---,0.00,VWS V14.01,2012-11-23 01:28:00,
2012-11-22 18:33:00,40.5,16.9,30.21,WSW,247,0.0,5.0,38,0.00,,---,0.00,VWS V14.01,2012-11-23 01:33:00,
2012-11-22 18:38:00,40.3,16.7,30.24,WSW,247,8.0,8.0,38,0.00,,---,0.00,VWS V14.01,2012-11-23 01:38:00,
2012-11-22 18:43:00,39.8,16.9,30.24,WSW,247,7.0,7.0,39,0.00,,---,0.00,VWS V14.01,2012-11-23 01:43:00,
2012-11-22 18:48:00,39.3,17.6,30.25,WSW,247,2.0,4.0,41,0.00,,---,0.00,VWS V14.01,2012-11-23 01:48:00,
2012-11-22 18:53:00,39.2,18.0,30.26,WSW,246,1.0,8.0,42,0.00,,---,0.00,VWS V14.01,2012-11-23 01:53:00,
2012-11-22 18:58:00,38.2,19.3,30.27,WSW,256,5.0,13.0,46,0.00,,---,0.00,VWS V14.01,2012-11-23 01:58:00,
2012-11-22 19:03:00,37.4,19.5,30.29,WSW,257,7.0,11.0,48,0.00,,---,0.00,VWS V14.01,2012-11-23 02:03:00,
2012-11-22 19:08:00,37.5,20.1,30.30,WSW,258,8.0,11.0,49,0.00,,---,0.00,VWS V14.01,2012-11-23 02:08:00,
2012-11-22 19:13:00,37.3,20.4,30.30,WSW,257,2.0,6.0,50,0.00,,---,0.00,VWS V14.01,2012-11-23 02:13:00,
2012-11-22 19:18:00,36.8,20.4,30.31,WSW,258,5.0,7.0,51,0.00,,---,0.00,VWS V14.01,2012-11-23 02:18:00,
2012-11-22 19:23:00,36.1,20.2,30.33,WSW,258,4.0,6.0,52,0.00,,---,0.00,VWS V14.01,2012-11-23 02:23:00,
2012-11-22 19:28:00,35.5,20.1,30.33,WSW,257,0.0,5.0,53,0.00,,---,0.00,VWS V14.01,2012-11-23 02:28:00,
2012-11-22 19:33:00,34.9,20.0,30.33,WSW,258,0.0,0.0,54,0.00,,---,0.00,VWS V14.01,2012-11-23 02:33:00,
2012-11-22 19:38:00,34.4,19.9,30.35,WSW,258,0.0,0.0,55,0.00,,---,0.00,VWS V14.01,2012-11-23 02:38:00,
2012-11-22 19:43:00,33.9,19.9,30.36,WSW,258,1.0,1.0,56,0.00,,---,0.00,VWS V14.01,2012-11-23 02:43:00,
2012-11-22 19:48:00,33.5,19.5,30.36,WSW,258,0.0,1.0,56,0.00,,---,0.00,VWS V14.01,2012-11-23 02:48:00,
2012-11-22 19:53:00,33.3,19.3,30.37,WSW,258,0.0,1.0,56,0.00,,---,0.00,VWS V14.01,2012-11-23 02:53:00,
2012-11-22 19:58:00,33.1,19.1,30.37,WSW,257,0.0,4.0,56,0.00,,---,0.00,VWS V14.01,2012-11-23 02:58:00,
2012-11-22 20:03:00,33.1,19.1,30.37,WSW,257,0.0,6.0,56,0.00,,---,0.00,VWS V14.01,2012-11-23 03:03:00,
2012-11-22 20:08:00,34.1,19.6,30.27,WSW,258,1.0,9.0,55,0.00,,---,0.00,VWS V14.01,2012-11-23 03:08:00,
2012-11-22 20:13:00,35.1,20.6,30.27,WSW,258,0.0,9.0,55,0.00,,---,0.00,VWS V14.01,2012-11-23 03:13:00,
2012-11-22 20:18:00,35.3,21.2,30.26,WSW,258,0.0,7.0,56,0.00,,---,0.00,VWS V14.01,2012-11-23 03:18:00,
2012-11-22 20:23:00,35.5,23.0,30.25,WSW,256,0.0,10.0,60,0.00,,---,0.00,VWS V14.01,2012-11-23 03:23:00,
2012-11-22 20:29:00,35.7,23.2,30.26,WSW,256,0.0,2.0,60,0.00,,---,0.00,VWS V14.01,2012-11-23 03:29:00,
2012-11-22 20:34:00,35.8,23.3,30.26,WSW,256,0.0,1.0,60,0.00,,---,0.00,VWS V14.01,2012-11-23 03:34:00,
2012-11-22 20:39:00,35.7,23.2,30.26,WSW,256,1.0,4.0,60,0.00,,---,0.00,VWS V14.01,2012-11-23 03:39:00,
2012-11-22 20:44:00,35.2,22.7,30.27,WSW,256,1.0,2.0,60,0.00,,---,0.00,VWS V14.01,2012-11-23 03:44:00,
2012-11-22 20:49:00,34.7,22.6,30.27,WSW,256,0.0,6.0,61,0.00,,---,0.00,VWS V14.01,2012-11-23 03:49:00,
2012-11-22 20:54:00,34.4,22.7,30.27,WSW,256,0.0,7.0,62,0.00,,---,0.00,VWS V14.01,2012-11-23 03:54:00,
2012-11-22 20:59:00,34.4,23.1,30.27,WSW,253,0.0,8.0,63,0.00,,---,0.00,VWS V14.01,2012-11-23 03:59:00,
2012-11-22 21:04:00,34.2,22.9,30.28,WSW,253,3.0,7.0,63,0.00,,---,0.00,VWS V14.01,2012-11-23 04:04:00,
2012-11-22 21:09:00,33.9,23.0,30.28,WSW,249,0.0,10.0,64,0.00,,---,0.00,VWS V14.01,2012-11-23 04:09:00,
2012-11-22 21:14:00,33.7,23.2,30.28,WSW,248,0.0,8.0,65,0.00,,---,0.00,VWS V14.01,2012-11-23 04:14:00,
2012-11-22 21:19:00,33.5,22.6,30.28,WSW,248,0.0,9.0,64,0.00,,---,0.00,VWS V14.01,2012-11-23 04:19:00,
2012-11-22 21:24:00,33.2,22.7,30.30,WSW,248,1.0,6.0,65,0.00,,---,0.00,VWS V14.01,2012-11-23 04:24:00,
2012-11-22 21:29:00,32.9,22.4,30.30,WSW,248,0.0,1.0,65,0.00,,---,0.00,VWS V14.01,2012-11-23 04:29:00,
2012-11-22 21:34:00,32.5,22.1,30.31,WSW,248,0.0,4.0,65,0.00,,---,0.00,VWS V14.01,2012-11-23 04:34:00,
2012-11-22 21:39:00,32.3,21.9,30.31,WSW,248,0.0,4.0,65,0.00,,---,0.00,VWS V14.01,2012-11-23 04:39:00,
2012-11-22 21:44:00,31.9,21.5,30.31,WSW,248,0.0,4.0,65,0.00,,---,0.00,VWS V14.01,2012-11-23 04:44:00,
2012-11-22 21:49:00,31.6,21.6,30.31,WSW,248,0.0,5.0,66,0.00,,---,0.00,VWS V14.01,2012-11-23 04:49:00,
2012-11-22 21:54:00,31.4,21.4,30.31,WSW,248,0.0,1.0,66,0.00,,---,0.00,VWS V14.01,2012-11-23 04:54:00,
2012-11-22 21:59:00,31.3,21.3,30.33,WSW,248,0.0,1.0,66,0.00,,---,0.00,VWS V14.01,2012-11-23 04:59:00,
2012-11-22 22:00:00,31.3,21.3,30.33,WSW,248,0.0,0.0,66,0.00,,---,0.00,VWS V14.01,2012-11-23 05:00:00,
2012-11-22 22:01:00,31.2,21.2,30.32,WSW,248,0.0,1.0,66,0.00,,---,0.00,VWS V14.01,2012-11-23 05:01:00,
2012-11-22 22:04:00,31.1,21.1,30.32,WSW,248,0.0,2.0,66,0.00,,---,0.00,VWS V14.01,2012-11-23 05:04:00,
2012-11-22 22:09:00,30.9,20.9,30.29,WSW,248,3.0,3.0,66,0.00,,---,0.00,VWS V14.01,2012-11-23 05:09:00,
2012-11-22 22:14:00,30.6,21.0,30.30,WSW,248,3.0,4.0,67,0.00,,---,0.00,VWS V14.01,2012-11-23 05:14:00,
2012-11-22 22:15:00,30.6,21.0,30.29,WSW,248,0.0,5.0,67,0.00,,---,0.00,VWS V14.01,2012-11-23 05:15:00,
2012-11-22 22:20:00,30.5,20.9,30.30,WSW,242,1.0,5.0,67,0.00,,---,0.00,VWS V14.01,2012-11-23 05:20:00,
2012-11-22 22:25:00,30.5,20.9,30.30,WSW,242,0.0,0.0,67,0.00,,---,0.00,VWS V14.01,2012-11-23 05:25:00,
2012-11-22 22:30:00,30.2,20.6,30.31,WSW,242,1.0,1.0,67,0.00,,---,0.00,VWS V14.01,2012-11-23 05:30:00,
2012-11-22 22:35:00,29.9,20.3,30.31,WSW,242,1.0,3.0,67,0.00,,---,0.00,VWS V14.01,2012-11-23 05:35:00,
2012-11-22 22:40:00,29.8,20.5,30.31,WSW,242,0.0,2.0,68,0.00,,---,0.00,VWS V14.01,2012-11-23 05:40:00,
2012-11-22 22:45:00,30.3,21.0,30.30,WSW,240,3.0,5.0,68,0.00,,---,0.00,VWS V14.01,2012-11-23 05:45:00,
2012-11-22 22:50:00,30.9,21.2,30.30,WSW,240,0.0,0.0,67,0.00,,---,0.00,VWS V14.01,2012-11-23 05:50:00,
2012-11-22 22:55:00,30.8,20.8,30.31,WSW,240,0.0,1.0,66,0.00,,---,0.00,VWS V14.01,2012-11-23 05:55:00,
2012-11-22 23:00:00,30.5,20.9,30.32,WSW,240,0.0,0.0,67,0.00,,---,0.00,VWS V14.01,2012-11-23 06:00:00,
2012-11-22 23:05:00,30.3,20.7,30.30,WSW,240,0.0,0.0,67,0.00,,---,0.00,VWS V14.01,2012-11-23 06:05:00,
2012-11-22 23:10:00,30.1,20.5,30.31,WSW,240,0.0,0.0,67,0.00,,---,0.00,VWS V14.01,2012-11-23 06:10:00,
2012-11-22 23:15:00,29.9,20.3,30.30,WSW,240,0.0,0.0,67,0.00,,---,0.00,VWS V14.01,2012-11-23 06:15:00,
2012-11-22 23:20:00,29.6,20.0,30.31,WSW,240,0.0,1.0,67,0.00,,---,0.00,VWS V14.01,2012-11-23 06:20:00,
2012-11-22 23:25:00,29.1,19.5,30.31,WSW,240,0.0,0.0,67,0.00,,---,0.00,VWS V14.01,2012-11-23 06:25:00,
2012-11-22 23:30:00,28.6,19.4,30.31,WSW,240,0.0,0.0,68,0.00,,---,0.00,VWS V14.01,2012-11-23 06:30:00,
2012-11-22 23:35:00,28.2,19.0,30.33,WSW,240,0.0,0.0,68,0.00,,---,0.00,VWS V14.01,2012-11-23 06:35:00,
2012-11-22 23:40:00,27.6,18.4,30.33,WSW,240,0.0,0.0,68,0.00,,---,0.00,VWS V14.01,2012-11-23 06:40:00,
2012-11-22 23:45:00,27.3,18.5,30.34,WSW,240,0.0,0.0,69,0.00,,---,0.00,VWS V14.01,2012-11-23 06:45:00,
2012-11-22 23:50:00,27.0,17.9,30.33,WSW,240,0.0,0.0,68,0.00,,---,0.00,VWS V14.01,2012-11-23 06:50:00,
2012-11-22 23:55:00,26.0,16.6,30.36,WSW,240,0.0,0.0,67,0.00,,---,0.00,VWS V14.01,2012-11-23 06:55:00,